"read_dt","SO2 (ppb)","flags","PMT voltage (V)","lamp voltage (V)","lamp intensity (Hz)","internal temp (C)","react chamber temp (C)","sample flow (l/min)","pres (mmHg)","SO2 bkg (ppb)","SO2 coefficient"
2017-04-02 00:00:00,1851E-3,5C000400,-0724,0835,12029,028.3,045.5,0.220,740.9,01.18,0.508
2017-04-02 00:01:00,1683E-3,5C000400,-0724,0836,12032,028.2,045.5,0.221,740.8,01.18,0.508
2017-04-02 00:02:00,1601E-3,5C000400,-0724,0835,11985,028.2,045.5,0.220,740.8,01.18,0.508
2017-04-02 00:03:00,1729E-3,5C000400,-0724,0835,12129,028.1,045.5,0.221,740.8,01.18,0.508
2017-04-02 00:04:00,1769E-3,5C000400,-0724,0835,12081,028.1,045.5,0.220,740.9,01.18,0.508
2017-04-02 00:05:00,1737E-3,5C000400,-0724,0834,12071,028.1,045.5,0.221,740.9,01.18,0.508
2017-04-02 00:06:00,1792E-3,5C000400,-0724,0836,12056,028.0,045.5,0.221,740.9,01.18,0.508
2017-04-02 00:07:00,1576E-3,5C000400,-0724,0835,12063,028.0,045.5,0.220,740.9,01.18,0.508
2017-04-02 00:08:00,1756E-3,5C000400,-0724,0835,12115,028.1,045.5,0.221,740.6,01.18,0.508
2017-04-02 00:09:00,1787E-3,5C000400,-0724,0835,12106,028.1,045.5,0.220,740.8,01.18,0.508
2017-04-02 00:10:00,1707E-3,5C000400,-0724,0835,12094,028.1,045.5,0.221,740.7,01.18,0.508
2017-04-02 00:11:00,1770E-3,5C000400,-0724,0835,11970,028.1,045.5,0.221,740.9,01.18,0.508
2017-04-02 00:12:00,1790E-3,5C000400,-0724,0835,11995,028.2,045.5,0.221,740.8,01.18,0.508
2017-04-02 00:13:00,1596E-3,5C000400,-0724,0835,12138,028.3,045.5,0.221,740.9,01.18,0.508
2017-04-02 00:14:00,1746E-3,5C000400,-0724,0836,12134,028.3,045.5,0.221,740.8,01.18,0.508
2017-04-02 00:15:00,1776E-3,5C000400,-0724,0835,12041,028.3,045.5,0.220,740.8,01.18,0.508
2017-04-02 00:16:00,1727E-3,5C000400,-0724,0835,12051,028.3,045.5,0.221,740.8,01.18,0.508
2017-04-02 00:17:00,1817E-3,5C000400,-0724,0834,12168,028.3,045.5,0.221,740.7,01.18,0.508
2017-04-02 00:18:00,1610E-3,5C000400,-0724,0836,12194,028.2,045.5,0.221,740.8,01.18,0.508
2017-04-02 00:19:00,1694E-3,5C000400,-0724,0835,12117,028.2,045.4,0.221,740.7,01.18,0.508
2017-04-02 00:20:00,1764E-3,5C000400,-0724,0836,12143,028.1,045.5,0.221,740.7,01.18,0.508
2017-04-02 00:21:00,1761E-3,5C000400,-0724,0835,12003,028.1,045.5,0.221,740.6,01.18,0.508
2017-04-02 00:22:00,1733E-3,5C000400,-0724,0835,11915,028.1,045.5,0.221,740.9,01.18,0.508
2017-04-02 00:23:00,1768E-3,5C000400,-0724,0836,12021,028.0,045.4,0.221,740.9,01.18,0.508
2017-04-02 00:24:00,1745E-3,5C000400,-0724,0836,12049,028.0,045.4,0.221,740.7,01.18,0.508
2017-04-02 00:25:00,1638E-3,5C000400,-0724,0835,12022,028.0,045.5,0.220,740.9,01.18,0.508
2017-04-02 00:26:00,1841E-3,5C000400,-0724,0835,12016,028.0,045.5,0.221,740.8,01.18,0.508
2017-04-02 00:27:00,1731E-3,5C000400,-0724,0835,12152,028.1,045.5,0.221,740.9,01.18,0.508
2017-04-02 00:28:00,1893E-3,5C000400,-0724,0835,12118,028.1,045.5,0.221,740.6,01.18,0.508
2017-04-02 00:29:00,1691E-3,5C000400,-0724,0835,12298,028.1,045.5,0.221,740.8,01.18,0.508
2017-04-02 00:30:00,1700E-3,5C000400,-0724,0835,12015,028.1,045.5,0.221,740.8,01.18,0.508
2017-04-02 00:31:00,1643E-3,5C000400,-0724,0835,12211,028.2,045.5,0.221,740.7,01.18,0.508
2017-04-02 00:32:00,1754E-3,5C000400,-0724,0835,12179,028.2,045.5,0.221,740.6,01.18,0.508
2017-04-02 00:33:00,1779E-3,5C000400,-0724,0836,11957,028.3,045.4,0.221,740.6,01.18,0.508
2017-04-02 00:34:00,1822E-3,5C000400,-0724,0835,12053,028.2,045.5,0.221,740.7,01.18,0.508
2017-04-02 00:35:00,1824E-3,5C000400,-0724,0835,12101,028.2,045.5,0.221,740.6,01.18,0.508
2017-04-02 00:36:00,1672E-3,5C000400,-0724,0836,11998,028.2,045.5,0.220,740.7,01.18,0.508
2017-04-02 00:37:00,1741E-3,5C000400,-0724,0835,12037,028.2,045.4,0.221,740.6,01.18,0.508
2017-04-02 00:38:00,1910E-3,5C000400,-0724,0835,11941,028.2,045.5,0.220,740.6,01.18,0.508
2017-04-02 00:39:00,1793E-3,5C000400,-0724,0835,12161,028.1,045.5,0.221,740.7,01.18,0.508
2017-04-02 00:40:00,1759E-3,5C000400,-0724,0835,12095,028.1,045.5,0.220,740.6,01.18,0.508
2017-04-02 00:41:00,1727E-3,5C000400,-0724,0835,12053,028.1,045.5,0.221,740.6,01.18,0.508
2017-04-02 00:42:00,1723E-3,5C000400,-0724,0835,12082,028.0,045.5,0.220,740.6,01.18,0.508
2017-04-02 00:43:00,1666E-3,5C000400,-0724,0835,12049,028.0,045.5,0.221,740.7,01.18,0.508
2017-04-02 00:44:00,1672E-3,5C000400,-0724,0835,12063,028.0,045.5,0.221,740.6,01.18,0.508
2017-04-02 00:45:00,1677E-3,5C000400,-0724,0835,12139,028.0,045.5,0.221,740.6,01.18,0.508
2017-04-02 00:46:00,1761E-3,5C000400,-0724,0835,12113,028.0,045.4,0.221,740.7,01.18,0.508
2017-04-02 00:47:00,1701E-3,5C000400,-0724,0835,12103,028.0,045.5,0.221,740.6,01.18,0.508
2017-04-02 00:48:00,1783E-3,5C000400,-0724,0836,11912,028.1,045.5,0.221,740.6,01.18,0.508
2017-04-02 00:49:00,1635E-3,5C000400,-0724,0836,12183,028.1,045.5,0.221,740.6,01.18,0.508
2017-04-02 00:50:00,1810E-3,5C000400,-0724,0836,11950,028.2,045.5,0.221,740.6,01.18,0.508
2017-04-02 00:51:00,1744E-3,5C000400,-0724,0835,12058,028.2,045.5,0.221,740.7,01.18,0.508
2017-04-02 00:52:00,1858E-3,5C000400,-0724,0835,12109,028.2,045.5,0.221,740.7,01.18,0.508
2017-04-02 00:53:00,1741E-3,5C000400,-0724,0835,12122,028.3,045.5,0.221,740.8,01.18,0.508
2017-04-02 00:54:00,1662E-3,5C000400,-0724,0835,12123,028.3,045.5,0.221,740.7,01.18,0.508
2017-04-02 00:55:00,1742E-3,5C000400,-0724,0836,12064,028.3,045.5,0.220,740.9,01.18,0.508
2017-04-02 00:56:00,1923E-3,5C000400,-0724,0835,12040,028.3,045.5,0.221,740.6,01.18,0.508
2017-04-02 00:57:00,1674E-3,5C000400,-0724,0835,11979,028.3,045.5,0.220,740.7,01.18,0.508
2017-04-02 00:58:00,1877E-3,5C000400,-0724,0836,12165,028.2,045.4,0.221,740.8,01.18,0.508
2017-04-02 00:59:00,1770E-3,5C000400,-0724,0836,11972,028.2,045.5,0.221,740.8,01.18,0.508
2017-04-02 01:00:00,1816E-3,5C000400,-0724,0835,12204,028.1,045.4,0.221,740.9,01.18,0.508
2017-04-02 01:01:00,1755E-3,5C000400,-0724,0835,12181,028.1,045.5,0.221,740.9,01.18,0.508
2017-04-02 01:02:00,1688E-3,5C000400,-0724,0835,12006,028.0,045.5,0.221,740.9,01.18,0.508
2017-04-02 01:03:00,1704E-3,5C000400,-0724,0834,12020,028.0,045.5,0.220,740.8,01.18,0.508
2017-04-02 01:04:00,1893E-3,5C000400,-0724,0835,12096,027.9,045.5,0.221,740.7,01.18,0.508
2017-04-02 01:05:00,1640E-3,5C000400,-0724,0835,11934,027.9,045.4,0.221,740.8,01.18,0.508
2017-04-02 01:06:00,1693E-3,5C000400,-0724,0834,12082,027.8,045.4,0.221,740.8,01.18,0.508
2017-04-02 01:07:00,1641E-3,5C000400,-0724,0835,12097,027.8,045.4,0.221,740.6,01.18,0.508
2017-04-02 01:08:00,1774E-3,5C000400,-0724,0835,11979,027.8,045.5,0.221,740.7,01.18,0.508
2017-04-02 01:09:00,1753E-3,5C000400,-0724,0834,12070,027.9,045.5,0.221,740.9,01.18,0.508
2017-04-02 01:10:00,1540E-3,5C000400,-0724,0835,12146,027.9,045.5,0.221,740.8,01.18,0.508
2017-04-02 01:11:00,1780E-3,5C000400,-0724,0836,12058,028.0,045.5,0.221,740.8,01.18,0.508
2017-04-02 01:12:00,1737E-3,5C000400,-0724,0835,12234,028.1,045.5,0.221,740.8,01.18,0.508
2017-04-02 01:13:00,1627E-3,5C000400,-0724,0835,12240,028.2,045.5,0.221,740.9,01.18,0.508
2017-04-02 01:14:00,1673E-3,5C000400,-0724,0836,12013,028.3,045.5,0.221,740.9,01.18,0.508
2017-04-02 01:15:00,1730E-3,5C000400,-0724,0835,12177,028.3,045.5,0.221,740.9,01.18,0.508
2017-04-02 01:16:00,1803E-3,5C000400,-0724,0835,12165,028.3,045.5,0.221,741.0,01.18,0.508
2017-04-02 01:17:00,1797E-3,5C000400,-0724,0836,12017,028.4,045.5,0.221,741.1,01.18,0.508
2017-04-02 01:18:00,1745E-3,5C000400,-0724,0835,11967,028.4,045.5,0.221,741.0,01.18,0.508
2017-04-02 01:19:00,1767E-3,5C000400,-0724,0835,12023,028.4,045.5,0.221,741.0,01.18,0.508
2017-04-02 01:20:00,1811E-3,5C000400,-0724,0836,12070,028.3,045.5,0.221,741.0,01.18,0.508
2017-04-02 01:21:00,1798E-3,5C000400,-0724,0835,12088,028.3,045.5,0.221,741.0,01.18,0.508
2017-04-02 01:22:00,1772E-3,5C000400,-0724,0836,11942,028.3,045.5,0.220,740.9,01.18,0.508
2017-04-02 01:23:00,1786E-3,5C000400,-0724,0835,12083,028.2,045.4,0.220,740.9,01.18,0.508
2017-04-02 01:24:00,1854E-3,5C000400,-0724,0837,12095,028.2,045.4,0.221,740.9,01.18,0.508
2017-04-02 01:25:00,1809E-3,5C000400,-0724,0835,12027,028.1,045.4,0.220,740.9,01.18,0.508
2017-04-02 01:26:00,1693E-3,5C000400,-0724,0835,12180,028.1,045.5,0.221,740.9,01.18,0.508
2017-04-02 01:27:00,1822E-3,5C000400,-0724,0835,12069,028.1,045.5,0.221,741.0,01.18,0.508
2017-04-02 01:28:00,1806E-3,5C000400,-0724,0835,12077,028.1,045.5,0.221,741.1,01.18,0.508
2017-04-02 01:29:00,1726E-3,5C000400,-0724,0836,12142,028.1,045.5,0.221,741.0,01.18,0.508
2017-04-02 01:30:00,1703E-3,5C000400,-0724,0835,12026,028.1,045.5,0.221,741.0,01.18,0.508
2017-04-02 01:31:00,1776E-3,5C000400,-0724,0836,12214,028.1,045.5,0.221,741.0,01.18,0.508
2017-04-02 01:32:00,1703E-3,5C000400,-0724,0836,12039,028.2,045.5,0.221,741.0,01.18,0.508
2017-04-02 01:33:00,1864E-3,5C000400,-0724,0835,12150,028.3,045.5,0.220,741.1,01.18,0.508
2017-04-02 01:34:00,1706E-3,5C000400,-0724,0836,11955,028.3,045.5,0.220,741.0,01.18,0.508
2017-04-02 01:35:00,1578E-3,5C000400,-0724,0835,11947,028.3,045.5,0.221,741.1,01.18,0.508
2017-04-02 01:36:00,1574E-3,5C000400,-0724,0836,12113,028.3,045.5,0.221,741.1,01.18,0.508
2017-04-02 01:37:00,1690E-3,5C000400,-0724,0835,12111,028.3,045.5,0.220,741.0,01.18,0.508
2017-04-02 01:38:00,1785E-3,5C000400,-0724,0835,12000,028.2,045.5,0.221,741.1,01.18,0.508
2017-04-02 01:39:00,1738E-3,5C000400,-0724,0836,12125,028.2,045.5,0.220,741.0,01.18,0.508
2017-04-02 01:40:00,1622E-3,5C000400,-0724,0835,12067,028.2,045.4,0.221,741.1,01.18,0.508
2017-04-02 01:41:00,1750E-3,5C000400,-0724,0835,12094,028.1,045.4,0.220,741.0,01.18,0.508
2017-04-02 01:42:00,1613E-3,5C000400,-0724,0836,12122,028.1,045.5,0.221,740.8,01.18,0.508
2017-04-02 01:43:00,1780E-3,5C000400,-0724,0835,12033,028.0,045.5,0.220,741.1,01.18,0.508
2017-04-02 01:44:00,1753E-3,5C000400,-0724,0835,12005,028.0,045.5,0.221,741.1,01.18,0.508
2017-04-02 01:45:00,1791E-3,5C000400,-0724,0835,12046,027.9,045.5,0.221,741.0,01.18,0.508
2017-04-02 01:46:00,1724E-3,5C000400,-0724,0835,12126,027.9,045.5,0.220,741.1,01.18,0.508
2017-04-02 01:47:00,1798E-3,5C000400,-0724,0834,11986,027.9,045.5,0.221,741.0,01.18,0.508
2017-04-02 01:48:00,1673E-3,5C000400,-0724,0835,12083,027.8,045.5,0.221,741.0,01.18,0.508
2017-04-02 01:49:00,1750E-3,5C000400,-0724,0835,12087,027.8,045.5,0.221,740.8,01.18,0.508
2017-04-02 01:50:00,1692E-3,5C000400,-0724,0835,12043,027.9,045.5,0.221,741.0,01.18,0.508
2017-04-02 01:51:00,1626E-3,5C000400,-0724,0835,12036,027.9,045.5,0.221,740.9,01.18,0.508
2017-04-02 01:52:00,1722E-3,5C000400,-0724,0835,12080,028.0,045.5,0.221,740.9,01.18,0.508
2017-04-02 01:53:00,1698E-3,5C000400,-0724,0835,12072,028.1,045.5,0.221,740.8,01.18,0.508
2017-04-02 01:54:00,1788E-3,5C000400,-0724,0835,12211,028.2,045.5,0.221,740.8,01.18,0.508
2017-04-02 01:55:00,1727E-3,5C000400,-0724,0834,12050,028.2,045.5,0.221,741.0,01.18,0.508
2017-04-02 01:56:00,1646E-3,5C000400,-0724,0835,12152,028.2,045.5,0.221,741.0,01.18,0.508
2017-04-02 01:57:00,1836E-3,5C000400,-0724,0835,11994,028.3,045.5,0.221,740.9,01.18,0.508
2017-04-02 01:58:00,1765E-3,5C000400,-0724,0834,12108,028.3,045.5,0.220,740.9,01.18,0.508
2017-04-02 01:59:00,1689E-3,5C000400,-0724,0835,12087,028.3,045.5,0.221,740.7,01.18,0.508
2017-04-02 02:00:00,1797E-3,5C000400,-0724,0835,12175,028.3,045.5,0.221,740.9,01.18,0.508
2017-04-02 02:01:00,1720E-3,5C000400,-0724,0835,12107,028.3,045.5,0.220,741.0,01.18,0.508
2017-04-02 02:02:00,1601E-3,5C000400,-0724,0835,12045,028.2,045.5,0.221,740.9,01.18,0.508
2017-04-02 02:03:00,1791E-3,5C000400,-0724,0835,12198,028.2,045.4,0.220,740.8,01.18,0.508
2017-04-02 02:04:00,1723E-3,5C000400,-0724,0834,12173,028.1,045.5,0.221,740.9,01.18,0.508
2017-04-02 02:05:00,1782E-3,5C000400,-0724,0835,12240,028.0,045.5,0.221,740.9,01.18,0.508
2017-04-02 02:06:00,1781E-3,5C000400,-0724,0835,12113,028.0,045.4,0.221,740.9,01.18,0.508
2017-04-02 02:07:00,1834E-3,5C000400,-0724,0834,12160,027.9,045.5,0.221,740.9,01.18,0.508
2017-04-02 02:08:00,1676E-3,5C000400,-0724,0835,12115,027.9,045.4,0.221,740.8,01.18,0.508
2017-04-02 02:09:00,1741E-3,5C000400,-0724,0835,12026,027.9,045.4,0.221,740.8,01.18,0.508
2017-04-02 02:10:00,1795E-3,5C000400,-0724,0835,12083,027.8,045.4,0.221,740.7,01.18,0.508
2017-04-02 02:11:00,1665E-3,5C000400,-0724,0835,12081,027.9,045.4,0.221,740.8,01.18,0.508
2017-04-02 02:12:00,1727E-3,5C000400,-0724,0835,12024,027.9,045.5,0.221,740.8,01.18,0.508
2017-04-02 02:13:00,1674E-3,5C000400,-0724,0835,11920,027.9,045.5,0.221,740.9,01.18,0.508
2017-04-02 02:14:00,1800E-3,5C000400,-0724,0835,12011,028.0,045.5,0.221,740.9,01.18,0.508
2017-04-02 02:15:00,1751E-3,5C000400,-0724,0836,12123,028.1,045.5,0.221,740.7,01.18,0.508
2017-04-02 02:16:00,1848E-3,5C000400,-0724,0836,12063,028.1,045.5,0.221,740.6,01.18,0.508
2017-04-02 02:17:00,1716E-3,5C000400,-0724,0835,12095,028.2,045.5,0.221,740.6,01.18,0.508
2017-04-02 02:18:00,1808E-3,5C000400,-0724,0835,12011,028.2,045.5,0.221,740.7,01.18,0.508
2017-04-02 02:19:00,1751E-3,5C000400,-0724,0835,12027,028.2,045.5,0.221,740.6,01.18,0.508
2017-04-02 02:20:00,1670E-3,5C000400,-0724,0836,12172,028.3,045.5,0.221,740.6,01.18,0.508
2017-04-02 02:21:00,1830E-3,5C000400,-0724,0836,12068,028.2,045.5,0.221,740.6,01.18,0.508
2017-04-02 02:22:00,1743E-3,5C000400,-0724,0835,12040,028.2,045.5,0.221,740.6,01.18,0.508
2017-04-02 02:23:00,1851E-3,5C000400,-0724,0835,11887,028.2,045.5,0.221,740.6,01.18,0.508
2017-04-02 02:24:00,1664E-3,5C000400,-0724,0836,11970,028.1,045.5,0.221,740.6,01.18,0.508
2017-04-02 02:25:00,1807E-3,5C000400,-0724,0836,12133,028.1,045.5,0.221,740.9,01.18,0.508
2017-04-02 02:26:00,1753E-3,5C000400,-0724,0834,12121,028.0,045.4,0.221,740.6,01.18,0.508
2017-04-02 02:27:00,1719E-3,5C000400,-0724,0835,12215,028.0,045.4,0.221,740.6,01.18,0.508
2017-04-02 02:28:00,1895E-3,5C000400,-0724,0835,12135,028.0,045.5,0.221,740.7,01.18,0.508
2017-04-02 02:29:00,1876E-3,5C000400,-0724,0835,12155,027.9,045.4,0.221,740.6,01.18,0.508
2017-04-02 02:30:00,1752E-3,5C000400,-0724,0836,11927,027.9,045.5,0.221,740.8,01.18,0.508
2017-04-02 02:31:00,1840E-3,5C000400,-0724,0835,12027,027.9,045.5,0.221,740.7,01.18,0.508
2017-04-02 02:32:00,1811E-3,5C000400,-0724,0835,12066,028.0,045.5,0.221,740.6,01.18,0.508
2017-04-02 02:33:00,1744E-3,5C000400,-0724,0835,12134,028.0,045.5,0.221,740.6,01.18,0.508
2017-04-02 02:34:00,1607E-3,5C000400,-0724,0835,12129,028.1,045.5,0.221,740.7,01.18,0.508
2017-04-02 02:35:00,1624E-3,5C000400,-0724,0836,12151,028.1,045.5,0.221,740.7,01.18,0.508
2017-04-02 02:36:00,1730E-3,5C000400,-0724,0836,12103,028.2,045.5,0.221,740.6,01.18,0.508
2017-04-02 02:37:00,1883E-3,5C000400,-0724,0835,12005,028.2,045.5,0.220,740.6,01.18,0.508
2017-04-02 02:38:00,1800E-3,5C000400,-0724,0836,11990,028.2,045.5,0.221,740.8,01.18,0.508
2017-04-02 02:39:00,1654E-3,5C000400,-0724,0835,12132,028.2,045.5,0.221,740.9,01.18,0.508
2017-04-02 02:40:00,1635E-3,5C000400,-0724,0835,12133,028.2,045.5,0.221,741.0,01.18,0.508
2017-04-02 02:41:00,1716E-3,5C000400,-0724,0835,12011,028.1,045.5,0.221,740.9,01.18,0.508
2017-04-02 02:42:00,1654E-3,5C000400,-0724,0835,12070,028.1,045.5,0.221,741.0,01.18,0.508
2017-04-02 02:43:00,1815E-3,5C000400,-0724,0835,12100,028.0,045.5,0.221,741.0,01.18,0.508
2017-04-02 02:44:00,1664E-3,5C000400,-0724,0836,12032,028.0,045.4,0.221,741.0,01.18,0.508
2017-04-02 02:45:00,1723E-3,5C000400,-0724,0835,12089,027.9,045.4,0.221,741.0,01.18,0.508
2017-04-02 02:46:00,1835E-3,5C000400,-0724,0835,12183,027.9,045.4,0.221,741.0,01.18,0.508
2017-04-02 02:47:00,1722E-3,5C000400,-0724,0836,12079,027.8,045.4,0.221,741.0,01.18,0.508
2017-04-02 02:48:00,1766E-3,5C000400,-0724,0835,12039,027.8,045.4,0.221,740.9,01.18,0.508
2017-04-02 02:49:00,1751E-3,5C000400,-0724,0835,12059,027.8,045.5,0.221,741.0,01.18,0.508
2017-04-02 02:50:00,1667E-3,5C000400,-0724,0836,12149,027.8,045.5,0.221,741.1,01.18,0.508
2017-04-02 02:51:00,1717E-3,5C000400,-0724,0835,12047,027.8,045.5,0.221,740.8,01.18,0.508
2017-04-02 02:52:00,1666E-3,5C000400,-0724,0835,12057,027.8,045.4,0.221,741.0,01.18,0.508
2017-04-02 02:53:00,1755E-3,5C000400,-0724,0835,12184,027.9,045.5,0.221,740.9,01.18,0.508
2017-04-02 02:54:00,1686E-3,5C000400,-0724,0835,12186,028.0,045.5,0.221,740.9,01.18,0.508
2017-04-02 02:55:00,1783E-3,5C000400,-0724,0835,12023,028.1,045.5,0.221,740.9,01.18,0.508
2017-04-02 02:56:00,1769E-3,5C000400,-0724,0836,11972,028.1,045.5,0.221,740.9,01.18,0.508
2017-04-02 02:57:00,1597E-3,5C000400,-0724,0836,12165,028.2,045.5,0.221,741.0,01.18,0.508
2017-04-02 02:58:00,1773E-3,5C000400,-0724,0836,12098,028.3,045.5,0.221,741.0,01.18,0.508
2017-04-02 02:59:00,1855E-3,5C000400,-0724,0835,11959,028.3,045.5,0.221,740.9,01.18,0.508
2017-04-02 03:00:00,1752E-3,5C000400,-0724,0836,12104,028.3,045.5,0.221,741.0,01.18,0.508
2017-04-02 03:01:00,1660E-3,5C000400,-0724,0835,11962,028.3,045.5,0.221,740.9,01.18,0.508
2017-04-02 03:02:00,1797E-3,5C000400,-0724,0835,12176,028.2,045.5,0.221,741.0,01.18,0.508
2017-04-02 03:03:00,1761E-3,5C000400,-0724,0835,11930,028.2,045.5,0.221,741.1,01.18,0.508
2017-04-02 03:04:00,1664E-3,5C000400,-0724,0836,11994,028.1,045.5,0.220,741.2,01.18,0.508
2017-04-02 03:05:00,1814E-3,5C000400,-0724,0835,12105,028.1,045.5,0.221,741.1,01.18,0.508
2017-04-02 03:06:00,1779E-3,5C000400,-0724,0836,12145,028.0,045.4,0.221,741.2,01.18,0.508
2017-04-02 03:07:00,1635E-3,5C000400,-0724,0835,12151,028.0,045.5,0.221,741.2,01.18,0.508
2017-04-02 03:08:00,1712E-3,5C000400,-0724,0836,12064,027.9,045.5,0.221,741.1,01.18,0.508
2017-04-02 03:09:00,1751E-3,5C000400,-0724,0836,12128,027.9,045.5,0.221,741.2,01.18,0.508
2017-04-02 03:10:00,1679E-3,5C000400,-0724,0835,12023,027.9,045.4,0.221,741.2,01.18,0.508
2017-04-02 03:11:00,1823E-3,5C000400,-0724,0835,12058,027.8,045.4,0.221,741.2,01.18,0.508
2017-04-02 03:12:00,1789E-3,5C000400,-0724,0835,12101,027.8,045.4,0.221,741.2,01.18,0.508
2017-04-02 03:13:00,1777E-3,5C000400,-0724,0835,12106,027.9,045.5,0.221,741.2,01.18,0.508
2017-04-02 03:14:00,1806E-3,5C000400,-0724,0836,12136,027.9,045.5,0.221,741.1,01.18,0.508
2017-04-02 03:15:00,1765E-3,5C000400,-0724,0836,12113,027.9,045.5,0.221,741.0,01.18,0.508
2017-04-02 03:16:00,1747E-3,5C000400,-0724,0835,12020,028.0,045.5,0.221,741.1,01.18,0.508
2017-04-02 03:17:00,1681E-3,5C000400,-0724,0836,12100,028.0,045.5,0.221,741.2,01.18,0.508
2017-04-02 03:18:00,1875E-3,5C000400,-0724,0835,12103,028.1,045.5,0.222,741.1,01.18,0.508
2017-04-02 03:19:00,1819E-3,5C000400,-0724,0835,12197,028.2,045.5,0.222,741.0,01.18,0.508
2017-04-02 03:20:00,1843E-3,5C000400,-0724,0836,12180,028.2,045.5,0.221,741.1,01.18,0.508
2017-04-02 03:21:00,1814E-3,5C000400,-0724,0836,12169,028.2,045.5,0.221,741.2,01.18,0.508
2017-04-02 03:22:00,1668E-3,5C000400,-0724,0835,12045,028.2,045.5,0.221,741.3,01.18,0.508
2017-04-02 03:23:00,1703E-3,5C000400,-0724,0836,12071,028.2,045.5,0.221,741.2,01.18,0.508
2017-04-02 03:24:00,1810E-3,5C000400,-0724,0836,12194,028.2,045.5,0.221,741.3,01.18,0.508
2017-04-02 03:25:00,1782E-3,5C000400,-0724,0836,12092,028.1,045.5,0.221,741.2,01.18,0.508
2017-04-02 03:26:00,1743E-3,5C000400,-0724,0836,11849,028.1,045.5,0.221,741.3,01.18,0.508
2017-04-02 03:27:00,1785E-3,5C000400,-0724,0835,11982,028.0,045.5,0.221,741.3,01.18,0.508
2017-04-02 03:28:00,1630E-3,5C000400,-0724,0836,11951,028.0,045.4,0.221,741.4,01.18,0.508
2017-04-02 03:29:00,1636E-3,5C000400,-0724,0835,12017,027.9,045.5,0.221,741.3,01.18,0.508
2017-04-02 03:30:00,1771E-3,5C000400,-0724,0836,11946,027.9,045.4,0.221,741.3,01.18,0.508
2017-04-02 03:31:00,1679E-3,5C000400,-0724,0836,12093,027.9,045.4,0.221,741.3,01.18,0.508
2017-04-02 03:32:00,1689E-3,5C000400,-0724,0835,12191,027.8,045.5,0.221,741.4,01.18,0.508
2017-04-02 03:33:00,1759E-3,5C000400,-0724,0836,12134,027.8,045.5,0.221,741.4,01.18,0.508
2017-04-02 03:34:00,1704E-3,5C000400,-0724,0835,11968,027.8,045.4,0.221,741.4,01.18,0.508
2017-04-02 03:35:00,1855E-3,5C000400,-0724,0835,12008,027.8,045.5,0.221,741.5,01.18,0.508
2017-04-02 03:36:00,1676E-3,5C000400,-0724,0835,11848,027.8,045.5,0.221,741.3,01.18,0.508
2017-04-02 03:37:00,1829E-3,5C000400,-0724,0835,12090,027.8,045.4,0.221,741.4,01.18,0.508
2017-04-02 03:38:00,1739E-3,5C000400,-0724,0836,12003,027.9,045.5,0.221,741.3,01.18,0.508
2017-04-02 03:39:00,1741E-3,5C000400,-0724,0834,12221,027.9,045.5,0.221,741.3,01.18,0.508
2017-04-02 03:40:00,1777E-3,5C000400,-0724,0837,11763,028.0,045.4,0.221,741.4,01.18,0.508
2017-04-02 03:41:00,1751E-3,5C000400,-0724,0836,12027,028.1,045.5,0.221,741.3,01.18,0.508
2017-04-02 03:42:00,1667E-3,5C000400,-0724,0836,12044,028.1,045.5,0.221,741.3,01.18,0.508
2017-04-02 03:43:00,1868E-3,5C000400,-0724,0835,12078,028.1,045.5,0.221,741.3,01.18,0.508
2017-04-02 03:44:00,1733E-3,5C000400,-0724,0835,12069,028.1,045.5,0.221,741.3,01.18,0.508
2017-04-02 03:45:00,1875E-3,5C000400,-0724,0835,12159,028.1,045.5,0.221,741.3,01.18,0.508
2017-04-02 03:46:00,1733E-3,5C000400,-0724,0835,12177,028.1,045.4,0.221,741.3,01.18,0.508
2017-04-02 03:47:00,1722E-3,5C000400,-0724,0835,12061,028.1,045.5,0.221,741.3,01.18,0.508
2017-04-02 03:48:00,1813E-3,5C000400,-0724,0836,12034,028.0,045.5,0.221,741.4,01.18,0.508
2017-04-02 03:49:00,1795E-3,5C000400,-0724,0835,12078,028.0,045.5,0.221,741.3,01.18,0.508
2017-04-02 03:50:00,1723E-3,5C000400,-0724,0835,12084,028.0,045.5,0.221,741.3,01.18,0.508
2017-04-02 03:51:00,1691E-3,5C000400,-0724,0835,12100,027.9,045.5,0.221,741.4,01.18,0.508
2017-04-02 03:52:00,1729E-3,5C000400,-0724,0835,12028,027.9,045.5,0.221,741.4,01.18,0.508
2017-04-02 03:53:00,1693E-3,5C000400,-0724,0835,11981,027.9,045.5,0.221,741.4,01.18,0.508
2017-04-02 03:54:00,1714E-3,5C000400,-0724,0836,11953,027.8,045.5,0.221,741.2,01.18,0.508
2017-04-02 03:55:00,1712E-3,5C000400,-0724,0836,12042,027.8,045.5,0.221,741.3,01.18,0.508
2017-04-02 03:56:00,1798E-3,5C000400,-0724,0835,12097,027.8,045.5,0.221,741.3,01.18,0.508
2017-04-02 03:57:00,1784E-3,5C000400,-0724,0835,12122,027.8,045.5,0.221,741.3,01.18,0.508
2017-04-02 03:58:00,1725E-3,5C000400,-0724,0835,12233,027.8,045.4,0.221,741.2,01.18,0.508
2017-04-02 03:59:00,1802E-3,5C000400,-0724,0836,12059,027.8,045.5,0.221,741.2,01.18,0.508
2017-04-02 04:00:00,1797E-3,5C000400,-0724,0835,12058,027.8,045.5,0.221,741.2,01.18,0.508
2017-04-02 04:01:00,1693E-3,5C000400,-0724,0836,12055,027.9,045.4,0.221,741.2,01.18,0.508
2017-04-02 04:02:00,1897E-3,5C000400,-0724,0836,12112,028.0,045.5,0.221,741.3,01.18,0.508
2017-04-02 04:03:00,1813E-3,5C000400,-0724,0836,12080,028.0,045.5,0.221,741.2,01.18,0.508
2017-04-02 04:04:00,1695E-3,5C000400,-0724,0836,12185,028.0,045.5,0.221,741.1,01.18,0.508
2017-04-02 04:05:00,1749E-3,5C000400,-0724,0835,11973,028.0,045.4,0.221,741.1,01.18,0.508
2017-04-02 04:06:00,1750E-3,5C000400,-0724,0836,12024,028.1,045.5,0.221,741.2,01.18,0.508
2017-04-02 04:07:00,1592E-3,5C000400,-0724,0835,12025,028.1,045.4,0.221,741.3,01.18,0.508
2017-04-02 04:08:00,1749E-3,5C000400,-0724,0835,11980,028.0,045.5,0.221,741.3,01.18,0.508
2017-04-02 04:09:00,1735E-3,5C000400,-0724,0835,12053,028.0,045.5,0.221,741.4,01.18,0.508
2017-04-02 04:10:00,1728E-3,5C000400,-0724,0836,12114,028.0,045.5,0.221,741.4,01.18,0.508
2017-04-02 04:11:00,1691E-3,5C000400,-0724,0835,12236,028.0,045.5,0.221,741.4,01.18,0.508
2017-04-02 04:12:00,1785E-3,5C000400,-0724,0835,12032,027.9,045.5,0.221,741.5,01.18,0.508
2017-04-02 04:13:00,1698E-3,5C000400,-0724,0835,12097,027.9,045.4,0.221,741.5,01.18,0.508
2017-04-02 04:14:00,1616E-3,5C000400,-0724,0835,11912,027.9,045.5,0.221,741.5,01.18,0.508
2017-04-02 04:15:00,1648E-3,5C000400,-0724,0835,12108,027.8,045.5,0.221,741.5,01.18,0.508
2017-04-02 04:16:00,1648E-3,5C000400,-0724,0836,11963,027.8,045.5,0.221,741.5,01.18,0.508
2017-04-02 04:17:00,1699E-3,5C000400,-0724,0835,12161,027.8,045.4,0.221,741.4,01.18,0.508
2017-04-02 04:18:00,1596E-3,5C000400,-0724,0835,12065,027.8,045.5,0.221,741.4,01.18,0.508
2017-04-02 04:19:00,1804E-3,5C000400,-0724,0835,12022,027.8,045.5,0.222,741.4,01.18,0.508
2017-04-02 04:20:00,1591E-3,5C000400,-0724,0835,11958,027.8,045.4,0.222,741.4,01.18,0.508